Spokane Fairchild, WA

1:21 AM PDT on July 23, 2017 (GMT -0700)
Fairchild Air Force Base

Weather History for KSKA - December, 2012

Change the Weather History Date:

Sunday, December 9, 2012

  Actual Average Record
Temperature  
Mean Temperature 23 °F -  
Max Temperature 29 °F 34 °F 51 °F (2015)
Min Temperature 17 °F 25 °F 9 °F (2013)
Degree Days  
Heating Degree Days 42    
Moisture  
Dew Point 26 °F    
Average Humidity 100    
Maximum Humidity 100    
Minimum Humidity 93    
Precipitation  
Precipitation 0.00 in - - ()
Sea Level Pressure  
Sea Level Pressure 30.27 in    
Wind  
Wind Speed 4 mph (SSE)    
Max Wind Speed 10 mph    
Max Gust Speed -    
Visibility 9 miles    
Events Snow    
Averages and records for this station are not official NWS values.
T = Trace of Precipitation, MM = Missing Value Source: NWS Daily Summary

Daily Weather History Graph

Daily Weather History Graph

Search for Another Location

Airport or City:

Trip Planner

Search our weather history database for the weather conditions in past years. The results will help you decide how hot, cold, wet, or windy it might be!

Date:

Astronomy

Dec. 09, 2012 Rise Set
Actual Time 7:27 AM PST 3:58 PM PST
Civil Twilight 6:51 AM PST 4:34 PM PST
Nautical Twilight 6:12 AM PST 5:13 PM PST
Astronomical Twilight 5:35 AM PST 5:51 PM PST
Moon 2:52 AM PST (12/9) 1:20 PM PST (12/9)
Length of Visible Light 9h 43m
Length of Day
8h 31m
Waning Crescent, 17% of the Moon is Illuminated
Dec 9
Waning Crescent
Dec 13
New
Dec 19
First Quarter
Dec 28
Full
Jan 4
Last Quarter

Hourly Weather History & Observations

Time (PST) Temp. Windchill Dew Point Humidity Pressure Visibility Wind Dir Wind Speed Gust Speed Precip Events Conditions
12:58 AM 19.4 °F - 19.4 °F 100% 30.36 in 10.0 mi West 2.3 mph - N/A   Clear
1:57 AM 19.4 °F 11.5 °F 19.4 °F 100% 30.28 in 10.0 mi WNW 5.8 mph - N/A Snow Light Snow
1:58 AM 19.0 °F 11.1 °F 19.0 °F 100% 30.38 in 10.0 mi WNW 5.8 mph - N/A Snow Light Snow
2:07 AM 19.4 °F 12.8 °F 19.4 °F 100% 30.29 in 10.0 mi WNW 4.6 mph - N/A   Clear
2:25 AM 19.4 °F - 19.4 °F 100% 30.28 in 10.0 mi West 2.3 mph - N/A Snow Light Snow
2:37 AM 17.6 °F 10.7 °F 17.6 °F 100% 30.28 in 10.0 mi WSW 4.6 mph - N/A   Clear
2:58 AM 17.6 °F - 17.6 °F 100% 30.38 in 10.0 mi SW 2.3 mph - 0.00 in   Partly Cloudy
3:58 AM 21.4 °F - 19.8 °F 93% 30.40 in 10.0 mi Variable 1.2 mph - N/A   Scattered Clouds
4:10 AM 21.2 °F - 19.4 °F 93% 30.30 in 10.0 mi NW 1.2 mph - N/A Snow Light Snow
4:21 AM 21.2 °F - 19.4 °F 93% 30.30 in 10.0 mi Calm Calm - N/A   Overcast
4:28 AM 21.2 °F - 21.2 °F 100% 30.30 in 10.0 mi Calm Calm - N/A Snow Light Snow
4:46 AM 19.4 °F - 19.4 °F 100% 30.30 in 10.0 mi Calm Calm - N/A   Overcast
4:58 AM 20.8 °F - 20.5 °F 99% 30.41 in 10.0 mi Calm Calm - 0.00 in   Overcast
5:55 AM 21.2 °F - 21.2 °F 100% 30.32 in 10.0 mi East 1.2 mph - N/A Snow Light Snow
5:58 AM 21.2 °F - 21.2 °F 100% 30.43 in 10.0 mi East 1.2 mph - N/A Snow Light Snow
6:07 AM 21.2 °F - 21.2 °F 100% 30.32 in 10.0 mi NE 2.3 mph - N/A   Mostly Cloudy
6:58 AM 20.7 °F 15.8 °F 20.7 °F 100% 30.44 in 10.0 mi NE 3.5 mph - 0.00 in   Partly Cloudy
7:58 AM 20.8 °F - 20.8 °F 100% 30.45 in 10.0 mi Calm Calm - N/A   Clear
8:27 AM 23.0 °F - 23.0 °F 100% 30.33 in 10.0 mi SE 2.3 mph - N/A   Clear
8:42 AM 23.0 °F 18.4 °F 23.0 °F 100% 30.32 in 10.0 mi SE 3.5 mph - N/A   Mostly Cloudy
8:55 AM 23.0 °F 17.0 °F 23.0 °F 100% 30.31 in 10.0 mi ESE 4.6 mph - N/A   Mostly Cloudy
8:58 AM 23.0 °F 15.8 °F 23.0 °F 100% 30.42 in 10.0 mi ESE 5.8 mph - 0.00 in   Mostly Cloudy
9:03 AM 23.0 °F 15.8 °F 23.0 °F 100% 30.31 in 10.0 mi SE 5.8 mph - N/A   Overcast
9:15 AM 24.8 °F 16.9 °F 24.8 °F 100% 30.32 in 10.0 mi SSE 6.9 mph - N/A   Overcast
9:20 AM 24.8 °F 17.9 °F 24.8 °F 100% 30.32 in 10.0 mi SSE 5.8 mph - N/A   Overcast
9:50 AM 24.8 °F 19.1 °F 24.8 °F 100% 30.33 in 10.0 mi SE 4.6 mph - N/A   Overcast
9:58 AM 25.3 °F - 25.3 °F 100% 30.44 in 10.0 mi SSE 2.3 mph - 0.00 in   Overcast
10:28 AM 26.6 °F 20.0 °F 26.6 °F 100% 30.33 in 10.0 mi SE 5.8 mph - N/A   Overcast
10:49 AM 26.6 °F 20.0 °F 26.6 °F 100% 30.33 in 10.0 mi SE 5.8 mph - N/A   Overcast
10:58 AM 26.6 °F 19.1 °F 26.6 °F 100% 30.43 in 10.0 mi ESE 6.9 mph - 0.00 in   Overcast
11:16 AM 26.6 °F 19.1 °F 26.6 °F 100% 30.32 in 10.0 mi SSE 6.9 mph - N/A   Overcast
11:26 AM 26.6 °F 19.1 °F 26.6 °F 100% 30.30 in 10.0 mi SSE 6.9 mph - N/A   Overcast
11:34 AM 26.6 °F 18.2 °F 26.6 °F 100% 30.29 in 10.0 mi SSE 8.1 mph - N/A   Overcast
11:58 AM 27.5 °F 22.2 °F 27.5 °F 100% 30.40 in 6.0 mi SSE 4.6 mph - 0.00 in Snow Light Snow
12:58 PM 28.6 °F 22.4 °F 28.6 °F 100% 30.38 in 10.0 mi SSW 5.8 mph - 0.00 in Snow Light Snow
1:01 PM 28.4 °F 21.2 °F 28.4 °F 100% 30.28 in 10.0 mi SSW 6.9 mph - N/A   Overcast
1:06 PM 28.4 °F 22.2 °F 28.4 °F 100% 30.27 in 10.0 mi SSW 5.8 mph - N/A   Overcast
1:16 PM 28.4 °F 22.2 °F 28.4 °F 100% 30.27 in 10.0 mi South 5.8 mph - N/A   Overcast
1:19 PM 28.4 °F 22.2 °F 28.4 °F 100% 30.26 in 10.0 mi South 5.8 mph - N/A   Overcast
1:24 PM 28.4 °F 22.2 °F 28.4 °F 100% 30.26 in 10.0 mi SSW 5.8 mph - N/A   Overcast
1:27 PM 28.4 °F 23.3 °F 28.4 °F 100% 30.26 in 10.0 mi South 4.6 mph - N/A   Overcast
1:42 PM 28.4 °F 19.7 °F 28.4 °F 100% 30.26 in 7.0 mi SW 9.2 mph - N/A Snow Light Snow
1:52 PM 28.4 °F 19.1 °F 28.4 °F 100% 30.25 in 9.0 mi SSW 10.4 mph - N/A   Overcast
1:58 PM 29.1 °F 20.6 °F 29.1 °F 100% 30.35 in 10.0 mi SSW 9.2 mph - 0.00 in   Overcast
2:18 PM 28.4 °F 19.1 °F 28.4 °F 100% 30.24 in 10.0 mi SSW 10.4 mph - N/A   Overcast
2:23 PM 28.4 °F 19.1 °F 28.4 °F 100% 30.25 in 10.0 mi SSW 10.4 mph - N/A Snow Light Snow
2:28 PM 28.4 °F 20.4 °F 28.4 °F 100% 30.25 in 10.0 mi SSW 8.1 mph - N/A Snow Light Snow
2:34 PM 28.4 °F 22.2 °F 28.4 °F 100% 30.25 in 10.0 mi SSW 5.8 mph - N/A   Overcast
2:39 PM 28.4 °F 19.7 °F 28.4 °F 100% 30.25 in 10.0 mi SSW 9.2 mph - N/A   Overcast
2:58 PM 28.9 °F 21.1 °F 28.9 °F 100% 30.36 in 10.0 mi SSW 8.1 mph - 0.00 in   Overcast
3:28 PM 28.4 °F 19.1 °F 28.4 °F 100% 30.23 in 10.0 mi SSW 10.4 mph - N/A   Overcast
3:58 PM 28.9 °F 19.8 °F 28.9 °F 100% 30.32 in 10.0 mi South 10.4 mph - N/A   Overcast
4:38 PM 28.4 °F 19.7 °F 28.4 °F 100% 30.20 in 10.0 mi South 9.2 mph - N/A   Overcast
4:58 PM 28.9 °F 21.9 °F 28.9 °F 100% 30.30 in 10.0 mi South 6.9 mph - N/A   Overcast
5:34 PM 28.4 °F 20.4 °F 28.4 °F 100% 30.20 in 10.0 mi South 8.1 mph - N/A   Overcast
5:44 PM 28.4 °F 19.7 °F 28.4 °F 100% 30.20 in 6.0 mi South 9.2 mph - N/A Snow Light Snow
5:58 PM 28.9 °F 22.8 °F 28.9 °F 100% 30.29 in 4.0 mi South 5.8 mph - 0.00 in Snow Light Snow
6:03 PM 28.4 °F 22.2 °F 28.4 °F 100% 30.19 in 6.0 mi South 5.8 mph - N/A Snow Light Snow
6:13 PM 28.4 °F 22.2 °F 28.4 °F 100% 30.19 in 4.0 mi SSE 5.8 mph - N/A Snow Light Snow
6:23 PM 28.4 °F 22.2 °F 28.4 °F 100% 30.19 in 4.0 mi South 5.8 mph - N/A Snow Light Snow
6:58 PM 28.6 °F 22.4 °F 28.6 °F 100% 30.28 in 5.0 mi SSE 5.8 mph - 0.00 in Snow Light Snow
7:01 PM 28.4 °F 22.2 °F 28.4 °F 100% 30.18 in 5.0 mi SSE 5.8 mph - N/A   Overcast
7:06 PM 28.4 °F 23.3 °F 28.4 °F 100% 30.18 in 6.0 mi SSE 4.6 mph - N/A   Overcast
7:16 PM 28.4 °F 23.3 °F 28.4 °F 100% 30.17 in 10.0 mi SSE 4.6 mph - N/A   Overcast
7:51 PM 28.4 °F 23.3 °F 28.4 °F 100% 30.15 in 10.0 mi SSE 4.6 mph - N/A   Overcast
7:58 PM 28.6 °F 24.8 °F 28.6 °F 100% 30.26 in 10.0 mi ESE 3.5 mph - 0.00 in   Overcast
8:03 PM 28.4 °F 23.3 °F 28.4 °F 100% 30.15 in 10.0 mi SE 4.6 mph - N/A   Overcast
8:53 PM 28.4 °F 21.2 °F 28.4 °F 100% 30.14 in 10.0 mi South 6.9 mph - N/A   Overcast
8:58 PM 28.4 °F 22.2 °F 28.4 °F 100% 30.24 in 10.0 mi SSE 5.8 mph - 0.00 in   Overcast
9:05 PM 28.4 °F 23.3 °F 28.4 °F 100% 30.14 in 10.0 mi SSE 4.6 mph - N/A   Overcast
9:48 PM 28.4 °F 23.3 °F 28.4 °F 100% 30.17 in 10.0 mi East 4.6 mph - N/A   Overcast
9:53 PM 28.4 °F 24.6 °F 28.4 °F 100% 30.16 in 8.0 mi East 3.5 mph - N/A   Light Freezing Rain
9:58 PM 28.6 °F 24.8 °F 28.6 °F 100% 30.26 in 5.0 mi East 3.5 mph - 0.00 in   Light Freezing Rain
10:01 PM 28.4 °F 24.6 °F 28.4 °F 100% 30.17 in 4.0 mi East 3.5 mph - N/A   Overcast
10:06 PM 28.4 °F 24.6 °F 28.4 °F 100% 30.16 in 4.0 mi East 3.5 mph - N/A   Light Freezing Drizzle
10:21 PM 28.4 °F 24.6 °F 28.4 °F 100% 30.15 in 3.0 mi East 3.5 mph - N/A   Light Freezing Drizzle
10:58 PM 28.8 °F - 28.8 °F 100% 30.24 in 3.0 mi East 2.3 mph - 0.00 in   Light Freezing Drizzle
11:37 PM 28.4 °F - 28.4 °F 100% 30.15 in 3.0 mi ESE 2.3 mph - N/A   Overcast
11:42 PM 28.4 °F 24.6 °F 28.4 °F 100% 30.15 in 3.0 mi SE 3.5 mph - N/A   Overcast
11:52 PM 28.4 °F - 28.4 °F 100% 30.15 in 3.0 mi SE 2.3 mph - N/A   Overcast
11:57 PM 28.4 °F - 28.4 °F 100% 30.14 in 3.0 mi SSE 2.3 mph - N/A   Overcast
11:58 PM 28.9 °F - 28.9 °F 100% 30.23 in 3.0 mi SSE 2.3 mph - 0.00 in   Overcast